Content
SEND FEEDBACK

Daily
Averages
Monthly
Summary
United States of America

NEW YORK - CENTRAL PARK, NEW YORK


Home > North America > United States > New York
Elevation: 14 feet     Latitude: 40 47N     Longitude: 073 58W

WEATHER
 
SELECT A DAY
Number of Records: 148,168;   Date Range: 11/1/95 - 8/12/14
 
SHARE

PRINT THIS DATA

[ ← Previous Day ]
WEATHER ALMANAC - FEBRUARY 9, 2013
[ Next Day → ]
[ °C ]   °F
Weather ElementAverageHighLow
Temperature27.5 °F32 °F (2:51 pm)21.9 °F (10:51 pm)
Dewpoint17.7 °F26.1 °F (2:51 am)5 °F (7:51 pm)
Humidity69.1 %92 % (1:00 am)35 % (4:51 pm)
Barometer29.98 in30.34 in (11:51 pm)29.77 in (1:51 am)
Wind Speed8.5 mph15 mph (10:51 am)
Wind Gust28.8 mph (10:51 am)
Weather ElementAverage
Visibility4.5 mi
Wind DirectionS (178.9 °)

Weather ElementTotal
Precipitation0.34 in
Heating Degree Days38.1 (Base 65)
Averaged from 35 records on February 9, 2013
WEATHER CONDITIONS BREAKOUT
WIND DIRECTION BREAKOUT
WEATHER BY HOUR - FEBRUARY 9, 2013
[ °C ]   °F
Local TimeTemperatureDewpointHumidityBarometerVisibilityWind DirectionWind SpeedGust SpeedPrecipitationEventsConditions
1:00 AM27.0 °F25.0 °F92 %29.78 in0.2 miVariable6.9 mph0.02 inFog-SnowSnow
1:51 AM27.0 °F25.0 °F92 %29.77 in0.5 miVariable6.9 mph0.10 inFog-SnowSnow
2:51 AM28.0 °F26.1 °F92 %29.78 in0.2 miNW (310°)11.5 mph17.3 mph0.12 inFog-SnowHeavy Snow
3:43 AM28.0 °F26.1 °F92 %29.81 in1.2 miVariable5.8 mph0.05 inSnowLight Snow
3:51 AM28.0 °F26.1 °F92 %29.79 in1.2 miVariable4.6 mph0.05 inSnowLight Snow
4:13 AM28.0 °F25.0 °F88 %29.82 in1.2 miNNW (340°)4.6 mph0.00 inSnowLight Snow
4:28 AM28.0 °F25.0 °F88 %29.83 in2.0 miNorth0.00 inOvercast
4:35 AM28.0 °F25.0 °F88 %29.83 in2.5 miVariable4.6 mph0.00 inOvercast
4:49 AM28.4 °F24.8 °F86 %29.84 in1.2 miNorth (350°)9.2 mph0.00 inSnowLight Snow
4:51 AM28.0 °F24.1 °F85 %29.82 in1.2 miNNW (340°)8.1 mph0.00 inSnowLight Snow
5:10 AM28.0 °F24.1 °F85 %29.84 in2.5 miVariable6.9 mph0.00 inOvercast
5:51 AM28.0 °F24.1 °F85 %29.83 in2.5 miNW (310°)9.2 mph18.4 mph0.00 inOvercast
6:51 AM28.0 °F23.0 °F81 %29.86 in2.5 miNW (310°)10.4 mph16.1 mphHaze
7:36 AM28.0 °F23.0 °F81 %29.89 in1.8 miWNW (300°)11.5 mph20.7 mphHaze
7:43 AM28.0 °F23.0 °F81 %29.90 in1.8 miNW (310°)10.4 mph21.9 mphHaze
7:51 AM28.0 °F21.9 °F78 %29.88 in1.8 miVariable6.9 mph21.9 mphHaze
8:51 AM26.1 °F19.9 °F78 %29.93 in1.8 miNW (310°)12.7 mph24.2 mphHaze
9:46 AM26.6 °F17.6 °F69 %29.98 in2.0 miWNW (300°)8.1 mph24.2 mphHaze
9:51 AM26.1 °F18.0 °F71 %29.96 in2.0 miNW (320°)8.1 mph19.6 mphHaze
10:10 AM25.0 °F17.1 °F72 %30.00 in2.0 miNW (310°)11.5 mph21.9 mphHaze
10:51 AM26.1 °F17.1 °F69 %29.99 in2.5 miWNW (300°)15.0 mph28.8 mphHaze
11:44 AM27.0 °F17.1 °F66 %30.03 in3.0 miNW (320°)10.4 mph26.5 mphHaze
11:51 AM28.0 °F17.1 °F63 %30.01 in3.0 miNorthHaze
12:51 PM30.9 °F18.0 °F59 %30.01 in6.0 miVariable5.8 mph19.6 mphHaze
1:51 PM30.9 °F14.0 °F50 %30.03 in10.0 miVariable6.9 mph16.1 mphClear
2:51 PM32.0 °F14.0 °F48 %30.06 in10.0 miWNW (300°)12.7 mph20.7 mphClear
3:51 PM30.9 °F9.0 °F40 %30.08 in10.0 miNW (310°)10.4 mph27.6 mphClear
4:51 PM30.9 °F6.1 °F35 %30.11 in10.0 miVariable6.9 mph23.0 mphClear
5:51 PM28.9 °F6.1 °F38 %30.15 in10.0 miWNW (300°)11.5 mph27.6 mphClear
6:51 PM28.0 °F8.1 °F43 %30.18 in10.0 miVariable5.8 mphClear
7:51 PM26.1 °F5.0 °F41 %30.22 in10.0 miVariable5.8 mphClear
8:51 PM25.0 °F5.0 °F43 %30.26 in10.0 miNW (310°)9.2 mphClear
9:51 PM24.1 °F6.1 °F46 %30.30 in10.0 miWNW (300°)8.1 mphClear
10:51 PM21.9 °F6.1 °F51 %30.31 in10.0 miVariable5.8 mphClear
11:51 PM21.9 °F6.1 °F51 %30.34 in10.0 miNW (310°)8.1 mphClear
Hourly data recorded from KNYC, located miles away from New York - Central Park, New York







STORIES FROM OUR PARTNERS